COSMOS 534

Satellite information

Favourite Embed

Satellite Type and Status

PAYLOADIN ORBIT

Key statistics

Satellite COSMOS 534 at a glance.

Uptime

19359

Days in orbit

Revolutions

≈ 12.6

Per day

Orbit

LEO

Low Earth Orbit

Inclination

74.0

Latest

Satellite identification and parameters

Extended collection of information and parameters for COSMOS 534.

Object identification

Identified? True

Debris? False

Object name: COSMOS 534

International designator: 1972-087G

Object number (NORAD): 6269

Object ID (CCSDS): 6269

Country: COMMONWEALTH OF INDEPENDENT STATES (CIS)

Current information (Y/N): Y

RCS size: MEDIUM

Orbital parameters

Period: 113.954 minutes

Inclination: 74.0371 deg

SMA: 7785.962 km

Apoapsis: 1466.685 km

Periapsis: 1348.969 km

RAAN: 349.1859 deg

Eccentricy: 0.00755954

Argument of periapsis: 125.6792 deg

Mean anomaly: 340.0704 deg

Mean motion: 12.63671933 rev/day

Mean motion (dot): -0.00000003 rev/day2

B* drag term: 0.000073149665 1/REarth

Two-line elements (TLE)

Creation date: Nov. 1, 2025, 7:40 p.m.

Reference frame: TEME

Reference center: EARTH

Epoch: Nov. 1, 2025, 10:28 a.m. UTC

TLE line 0: 0 COSMOS 534

TLE line 1: 1 06269U 72087G 25305.43653119 -.00000003 00000-0 73150-4 0 9998

TLE line 2: 2 06269 74.0371 349.1859 0075595 125.6792 340.0704 12.63671933444864

Live tracking on map

Real-time ground track for satellite COSMOS 534.

In-orbit conjunctions

A list of the most updated potential collisions computed for object COSMOS 534.

Target Orbit TCA Probability of collision Miss distance Type
COSMOS 2499 DEB LEO 2024-08-14 10:59:05 0.0001572697 695.0 (m) DEBRIS

Associated space launch

Military communications satellites

COSMOS 534 was lifted into orbit during the mission ‘Kosmos-3M | Strela-1M 33-40’, on board a Kosmos-3M space rocket.

The launch took place on Nov. 1, 1972, 2:08 a.m. from 132/2.

For more information about the launch, click the button.

Launch to space Kosmos-3M | Strela-1M 33-40
Kosmos-3M | Strela-1M 33-40

Agency: N/A

Status: Launch Successful

Launch date: Nov. 1, 1972, 2:08 a.m. UTC

Rocket: Kosmos-3M

Launch pad: 132/2

Location: Plesetsk Cosmodrome, Russian Federation

...

Latest news about this satellite

There are no fresh news available about this satellite. Check back as we update our databases every day.


Newsletter sign-up

Weekly statistics, charts and insights to help you stay on top of the space industry.